Location: AstroGeek's Observatory
(41.9520°N, 70.9880°W)
Time: 15:22:26
(UTC-04:00)

ISS - All Passes

Search period start: 27 August 2015 00:00
Search period end: 06 September 2015 00:00
Orbit: 399 x 402 km, 51.6° (Epoch: 27 August)

Date Brightness Start Highest point End Pass type
(mag) Time Alt. Az. Time Alt. Az. Time Alt. Az.
27 Aug - 10:21:41 10° SSW 10:24:34 31° SE 10:27:30 10° ENE daylight
27 Aug - 11:57:54 10° W 12:00:56 35° NNW 12:03:58 10° NE daylight
27 Aug - 13:35:58 10° NW 13:38:02 16° N 13:40:05 10° NNE daylight
27 Aug - 15:12:55 10° NNW 15:15:20 19° NNE 15:17:44 10° ENE daylight
27 Aug - 16:48:56 10° NW 16:52:11 69° NNE 16:55:25 10° ESE daylight
27 Aug - 18:26:27 10° W 18:28:15 14° SW 18:29:57 10° SSW daylight
28 Aug - 09:29:10 10° S 09:31:13 16° SE 09:33:21 10° E daylight
28 Aug - 11:04:07 10° WSW 11:07:20 60° NNW 11:10:33 10° NE daylight
28 Aug - 12:41:54 10° WNW 12:44:14 18° NNW 12:46:34 10° NNE daylight
28 Aug - 14:19:26 10° NNW 14:21:32 16° N 14:23:39 10° NE daylight
28 Aug - 15:55:30 10° NW 15:58:36 39° NNE 16:01:40 10° E daylight
28 Aug - 17:32:06 10° WNW 17:34:53 26° SW 17:37:39 10° SSE daylight
29 Aug - 10:10:34 10° SW 10:13:47 72° SE 10:17:02 10° ENE daylight
29 Aug - 11:47:47 10° WNW 11:50:27 23° NNW 11:53:07 10° NE daylight
29 Aug - 13:25:45 10° NW 13:27:43 15° N 13:29:40 10° NE daylight
29 Aug - 15:02:06 10° NW 15:04:54 26° NNE 15:07:43 10° E daylight
29 Aug - 16:38:17 10° WNW 16:41:28 52° SW 16:44:37 10° SE daylight
30 Aug - 09:17:18 10° SSW 09:20:18 35° SE 09:23:20 10° ENE daylight
30 Aug - 10:53:45 10° W 10:56:43 32° NNW 10:59:42 10° NE daylight
30 Aug - 12:31:49 10° NW 12:33:50 15° N 12:35:51 10° NNE daylight
30 Aug - 14:08:39 10° NW 14:11:07 20° NNE 14:13:36 10° ENE daylight
30 Aug - 15:44:40 10° NW 15:47:55 79° NE 15:51:10 10° ESE daylight
30 Aug - 17:22:33 10° WSW 17:23:56 12° SW 17:25:12 10° SSW daylight
31 Aug - 08:24:33 10° S 08:26:52 18° SE 08:29:14 10° E daylight
31 Aug - 09:59:50 10° WSW 10:03:01 52° NNW 10:06:13 10° NE daylight
31 Aug - 11:37:42 10° NW 11:39:59 17° N 11:42:14 10° NNE daylight
31 Aug - 13:15:07 10° NNW 13:17:16 16° N 13:19:26 10° NE daylight
31 Aug - 14:51:09 10° NW 14:54:17 43° NNE 14:57:24 10° ESE daylight
31 Aug - 16:27:52 10° W 16:30:32 23° SW 16:33:08 10° S daylight
01 Sep - 09:06:09 10° SW 09:09:23 83° SSE 09:12:39 10° ENE daylight
01 Sep - 10:43:31 10° WNW 10:46:06 21° NNW 10:48:41 10° NE daylight
01 Sep - 12:21:23 10° NW 12:23:22 15° N 12:25:20 10° NE daylight
01 Sep - 13:57:40 10° NW 14:00:32 28° NNE 14:03:25 10° E daylight
01 Sep - 15:33:54 10° WNW 15:37:02 45° SW 15:40:08 10° SSE daylight
02 Sep - 08:12:45 10° SSW 08:15:49 41° SE 08:18:54 10° ENE daylight
02 Sep - 09:49:22 10° W 09:52:16 29° NNW 09:55:12 10° NE daylight
02 Sep - 11:27:26 10° NW 11:29:25 15° N 11:31:25 10° NE daylight
02 Sep - 13:04:09 10° NW 13:06:41 21° NNE 13:09:15 10° ENE daylight
02 Sep - 14:40:11 10° NW 14:43:26 89° NNE 14:46:41 10° SE daylight
02 Sep - 16:18:46 10° WSW 16:19:24 10° SW 16:19:54 10° SW daylight
03 Sep - 07:19:48 10° S 07:22:17 21° SE 07:24:51 10° E daylight
03 Sep - 08:55:21 10° WSW 08:58:30 47° NNW 09:01:40 10° NE daylight
03 Sep - 10:33:16 10° NW 10:35:28 17° N 10:37:41 10° NNE daylight
03 Sep - 12:10:34 10° NNW 12:12:47 17° N 12:15:00 10° NE daylight
03 Sep - 13:46:34 10° NW 13:49:44 48° NNE 13:52:54 10° ESE daylight
03 Sep - 15:23:26 10° W 15:25:56 20° SW 15:28:22 10° S daylight
04 Sep - 06:28:00 10° SE 06:28:48 11° SE 06:29:44 10° ESE daylight
04 Sep - 08:01:32 10° SW 08:04:47 86° NNW 08:08:02 10° NE daylight
04 Sep - 09:39:00 10° WNW 09:41:32 20° NNW 09:44:04 10° NE daylight
04 Sep - 11:16:48 10° NW 11:18:48 15° N 11:20:48 10° NE daylight
04 Sep - 12:53:00 10° NW 12:55:56 30° NNE 12:58:52 10° E daylight
04 Sep - 14:29:19 10° WNW 14:32:23 39° SW 14:35:25 10° SSE daylight
05 Sep - 07:07:59 10° SW 07:11:07 47° SE 07:14:16 10° ENE daylight
05 Sep - 08:44:46 10° W 08:47:38 27° NNW 08:50:29 10° NE daylight
05 Sep - 10:22:49 10° NW 10:24:48 15° N 10:26:46 10° NE daylight
05 Sep - 11:59:26 10° NW 12:02:02 22° NNE 12:04:39 10° ENE daylight
05 Sep - 13:35:29 10° WNW 13:38:44 80° SW 13:41:58 10° SE daylight
